Location: Fennell Observatory
(35.2597°N, 89.5125°W)
Time: 22:35:16
(UTC-05:00)

Daily predictions for brighter satellites

Satellite Brightness Start Highest point End
(mag) Time Altitude Azimuth Time Altitude Azimuth Time Altitude Azimuth
Cosmos 1954 Rocket 4.0 20:40:52 10° S 20:46:01 67° ESE 20:51:10 10° NNE
ATLAS 5 CENTAUR R/B 2.3 20:41:57 10° S 20:46:05 35° ESE 20:50:28 10° NE
Meteor 2-5 Rocket 3.9 20:40:20 10° S 20:46:10 85° W 20:51:56 10° N
Cosmos 1934 Rocket 4.0 20:40:28 10° N 20:46:39 75° E 20:52:42 10° S
Cosmos 1980 3.9 20:41:33 10° NNW 20:47:12 63° ENE 20:52:49 10° SSE
Cosmos 2084 4.2 20:48:56 10° S 20:52:26 27° ESE 20:55:47 10° ENE
Cosmos 614 Rocket 4.2 20:48:19 10° S 20:53:19 51° ESE 20:58:22 10° NNE
YAOGAN 6 3.7 20:51:22 10° SE 20:54:29 28° ENE 20:57:40 10° NNE
Helios 1A 3.2 20:52:59 10° SSE 20:56:59 51° ENE 21:01:01 10° N
Cosmos 1605 Rocket 4.1 20:50:48 10° N 20:57:00 62° E 21:03:15 10° SSE
CZ-4B DEB 3.6 20:54:50 10° SE 20:57:27 29° ENE 21:00:05 10° NNE
Cosmos 2237 Rocket 2.2 20:51:59 10° NNW 20:57:36 71° ENE 21:03:12 10° SSE
Helios 1B rocket 2.5 20:55:01 10° NNE 20:59:07 62° ESE 21:03:12 10° S
CZ-3B R/B 3.8 20:58:30 10° S 21:00:44 33° ESE 21:05:47 10° NE
USA 234 3.5 20:55:56 10° ENE 21:02:08 44° SE 21:08:18 10° SSW
Cosmos 1842 Rocket 3.6 20:58:47 10° N 21:03:09 64° E 21:07:26 10° SSE
Atlas Centaur 2 1.6 21:00:20 10° WSW 21:03:46 37° S 21:06:40 13° ESE
H-2A R/B 4.1 21:02:12 10° E 21:04:20 12° ENE 21:06:29 10° NE
ERS-1 Rocket 3.9 21:01:42 10° SE 21:06:00 32° ENE 21:10:25 10° N
Cosmos 2227 Rocket 3.1 21:03:31 10° SW 21:09:02 54° WNW 21:14:35 10° NNE
Meteor 1-24 Rocket 3.9 21:05:39 10° S 21:11:37 84° W 21:17:26 10° N
Cosmos 1727 Rocket 4.0 21:05:48 10° S 21:12:04 77° E 21:18:24 10° N
Lacrosse 4 Rocket 3.5 21:08:22 10° WSW 21:12:09 32° WNW 21:16:04 10° N
SL-19 R/B 4.5 21:08:26 10° SSE 21:14:13 77° WSW 21:19:49 10° NNW
Cosmos 1741 Rocket 4.2 21:09:53 10° S 21:15:03 54° ESE 21:20:13 10° NNE
Cosmos 1674 3.7 21:12:38 14° SE 21:15:12 27° E 21:18:26 10° NNE
Cosmos 1184 Rocket 2.8 21:15:02 10° S 21:18:22 86° W 21:21:45 10° N
SL-16 R/B 2.7 21:15:36 10° N 21:21:02 45° ENE 21:25:09 17° SE
SEDSat Delta rocket 4.1 21:18:03 10° WSW 21:21:51 27° SSW 21:24:14 16° SSE
In-Cosmos 22 4.3 21:17:00 10° S 21:22:40 88° E 21:28:27 10° N
ARGOS 4.2 21:20:18 15° ESE 21:23:55 30° ENE 21:28:34 10° N
NOSS 3-4 (A) 3.9 21:20:20 10° NNW 21:27:30 82° ENE 21:33:43 17° SE
NOSS 3-4 (C) 3.9 21:20:26 10° NNW 21:27:36 81° ENE 21:33:47 17° SE
Cosmos 1356 Rocket 3.9 21:27:26 15° SSE 21:30:34 43° E 21:34:38 10° NNE
Cosmos 1076 Rocket 3.8 21:27:30 14° SSE 21:30:58 47° E 21:35:11 10° NNE
Tiangong 1 3.2 21:30:12 10° WNW 21:32:33 23° NNW 21:34:53 10° NE
SAR-Lupe-4 3.8 21:32:54 14° S 21:35:50 68° W 21:39:24 10° NNW
Terra 4.0 21:36:56 10° ENE 21:38:07 11° ENE 21:39:17 10° NE
Meteor 2-1 Rocket 4.4 21:33:06 10° N 21:38:55 78° W 21:44:22 11° S
Cosmos 2219 Rocket 4.1 21:34:31 10° NW 21:39:04 25° WSW 21:43:36 10° SSW
Cosmos 2333 Rocket 3.8 21:36:32 10° NW 21:41:24 30° WSW 21:46:14 10° SSW
Okean 3 Rocket 3.6 21:37:33 10° S 21:42:04 87° W 21:46:35 10° N
Cosmos 2221 2.5 21:41:31 10° N 21:45:55 81° E 21:48:41 22° S
NOAA 11 4.1 21:46:10 21° SSE 21:49:55 78° ENE 21:55:21 10° N
Cosmos 2208 Rocket 4.2 21:46:17 10° N 21:51:34 61° ENE 21:54:24 27° SE
Cosmos 2227 4.3 21:46:23 10° S 21:51:58 56° ESE 21:57:32 10° NNE
SL-08 RB Rocket 4.1 21:56:03 31° SE 21:57:49 47° ENE 22:02:12 10° N
RESURS DK-1 4.1 21:55:09 10° N 21:58:16 20° ENE 21:59:21 18° E
SPOT 1/Viking Rocket 4.1 21:56:35 27° ESE 21:58:43 41° ENE 22:03:31 10° N
YAOGAN 11 4.3 21:58:18 33° SE 22:00:08 59° ENE 22:04:36 10° N
Cosmos 1766 Rocket 3.4 21:58:37 28° S 22:00:47 70° E 22:05:06 10° NNE
Cosmos 1242 Rocket 2.5 21:57:40 10° N 22:01:25 78° E 22:02:30 43° SSE
Meteor 1-21 Rocket 4.3 21:57:50 10° S 22:03:34 83° W 22:09:12 10° N
USA 245 2.9 22:03:34 52° ESE 22:03:59 57° ENE 22:07:40 10° N
EO 1 Delta rocket 4.3 22:04:01 32° ESE 22:05:35 43° ENE 22:09:58 10° N
Cosmos 1570 Rocket 4.0 22:00:48 10° NNW 22:06:06 88° W 22:08:43 31° SSE
Milstar 3 Cent rocket 4.0 22:02:36 10° W 22:10:04 49° S 22:18:44 24° SE
SL-14 R/B 3.8 22:10:43 40° E 22:10:51 40° E 22:14:35 10° NNE
Cosmos 1328 Rocket 4.3 22:08:26 10° NNE 22:12:24 34° ENE 22:12:50 33° E
Cosmos 2228 Rocket 4.0 22:09:42 10° NNE 22:13:52 34° ENE 22:14:28 32° E
Cosmos 1328 4.1 22:15:50 46° ESE 22:16:01 47° E 22:19:54 10° NNE
Cosmos 1867 4.4 22:11:16 10° SW 22:16:32 51° WNW 22:21:51 10° NNE
Cosmos 1743 Rocket 3.9 22:16:54 43° ESE 22:17:15 44° E 22:21:22 10° NNE
H-2A R/B 3.7 22:17:20 20° ENE 22:17:41 20° ENE 22:20:47 10° NNE
MetOp-B 4.4 22:17:12 26° S 22:20:11 64° WSW 22:25:30 10° NNW
STPSAT 2 (USA 217) 4.5 22:19:23 41° S 22:20:50 70° ESE 22:25:22 10° NNE
Cosmos 2263 Rocket 2.9 22:21:44 32° ESE 22:21:44 32° ESE 22:26:32 10° NE
Delta 2 Rocket 4.3 22:17:53 10° SW 22:23:26 49° SSE 22:25:01 39° ESE
Cosmos 1626 4.3 22:25:42 15° ENE 22:25:42 15° ENE 22:26:52 10° NE
Cosmos 1151 Rocket 4.3 22:21:16 10° NNE 22:24:51 26° ENE 22:24:51 26° ENE
Cosmos 1300 3.1 22:21:27 10° N 22:25:01 47° ENE 22:25:01 47° ENE
Cosmos 1459 Rocket 4.3 22:19:34 10° NNW 22:25:48 65° W 22:29:36 24° SSW
Cosmos 2100 Rocket 4.4 22:19:44 10° NNW 22:25:55 60° W 22:30:08 21° SSW
Cosmos 2061 Rocket 4.2 22:20:37 10° N 22:26:58 72° W 22:30:42 27° S
SPOT 5 3.0 22:28:20 39° S 22:30:03 67° WSW 22:35:02 10° NNW
ATLAS 5 CENTAUR R/B 4.2 22:27:00 10° WSW 22:30:47 24° NW 22:34:50 10° N
Cosmos 1726 2.0 22:29:52 10° N 22:33:26 83° NNE 22:33:26 83° NNE
Cosmos 2123 Rocket 3.9 22:30:34 31° S 22:33:46 88° E 22:39:59 10° N
IGS 5A 4.3 22:33:58 35° ENE 22:33:58 35° ENE 22:37:43 10° N
OAO 1 Rocket 4.3 22:29:10 10° W 22:34:33 86° S 22:36:51 35° E
Meteor 2-10 4.2 22:30:39 10° N 22:36:14 65° E 22:37:38 48° SE
Lacrosse 5 2.7 22:31:57 10° NNW 22:36:43 40° NE 22:38:08 33° E
Cosmos 468 Rocket 3.8 22:35:36 10° NNW 22:40:45 83° ENE 22:41:43 59° SSE
H-2A R/B 2.1 22:41:25 46° S 22:43:00 76° W 22:48:24 10° NNW
Cosmos 371 Rocket 3.4 22:39:15 10° N 22:43:58 55° ENE 22:44:22 54° E
USA 234 4.2 22:38:53 10° NNE 22:45:05 47° NW 22:51:16 10° WSW
Cosmos 1603 3.6 22:42:27 10° NNW 22:48:08 86° ENE 22:49:18 58° SSE
Atlas Centaur 2 3.7 22:49:08 10° WSW 22:49:18 11° WSW 22:49:18 11° WSW
Cosmos 1455 4.2 22:55:54 10° NNE 22:57:48 20° NE 22:57:48 20° NE
Landsat 7 3.8 22:59:49 65° SW 23:00:16 69° W 23:05:01 10° NNW
Cosmos 1725 Rocket 4.1 22:54:24 10° N 23:00:38 71° W 23:02:33 45° SSW
Sakura Rocket 4.3 22:55:52 10° WSW 23:01:39 42° SSW 23:01:39 42° SSW
SL-16 R/B 4.0 23:00:38 10° NW 23:04:44 21° W 23:07:03 16° SW
Cosmos 1943 3.3 22:59:48 10° NNW 23:05:23 57° ENE 23:05:59 54° E
CZ-4C R/B 4.1 23:09:43 14° ENE 23:09:43 14° ENE 23:10:54 10° ENE
deb Chang Zheng 4 3.8 23:03:17 10° NNE 23:07:04 65° NNE 23:07:04 65° NNE
Tiangong 1 4.0 23:06:45 10° NW 23:07:55 15° NNW 23:07:55 15° NNW
CZ-4B R/B 3.6 23:08:12 10° NNE 23:13:09 64° E 23:13:09 64° E
Cosmos 2058 3.4 23:15:04 59° NNW 23:15:04 59° NNW 23:18:39 10° N
CZ-4 R/B 3.8 23:09:49 10° NNE 23:14:23 78° NE 23:14:23 78° NE
Cosmos 1703 4.2 23:16:14 46° N 23:16:14 46° N 23:19:06 10° N
Terra 1.9 23:15:15 70° W 23:15:15 70° W 23:19:58 10° NNW
Cosmos 540 Rocket 4.5 23:14:04 10° N 23:18:37 34° ENE 23:18:37 34° ENE
Cosmos 1464 Rocket 4.4 23:19:45 10° N 23:25:39 46° E 23:25:54 46° E
Cosmos 1354 Rocket 3.9 23:26:34 84° N 23:26:34 84° N 23:31:39 10° NNE
Cosmos 2151 4.1 23:30:35 38° WNW 23:30:35 38° WNW 23:34:28 10° N
SME Rocket 4.2 23:34:18 38° NNE 23:34:18 38° NNE 23:37:10 10° N
RESURS DK-1 4.2 23:32:43 10° NW 23:35:16 25° W 23:35:16 25° W
CZ-2C R/B 3.9 23:33:46 10° NNE 23:37:06 29° ENE 23:37:06 29° ENE
Spot 4 4.1 23:39:25 67° NNW 23:39:25 67° NNW 23:43:41 10° NNW
Cosmos 304 Rocket 4.4 23:45:12 10° NNW 23:48:57 54° N 23:48:57 54° N
Tsikada Rocket 4.4 23:50:58 48° E 23:50:58 48° E 23:56:46 10° NNE
Cosmos 841 Rocket 4.1 23:46:49 10° NNW 23:51:18 47° W 23:51:18 47° W
H-2A R/B 3.7 23:54:28 27° WNW 23:54:28 27° WNW 23:57:16 10° NW
